Location: NJAA Observatory
(40.6819°N, 74.8979°W)
Time: 07:21:41
(UTC-04:00)

Cosmos 1328 Rocket - Visible Passes

Search period start: 22 July 2014 00:00
Search period end: 01 August 2014 00:00
Orbit: 602 x 630 km, 82.5° (Epoch: 21 July)

Date Brightness Start Highest point End Pass type
(mag) Time Alt. Az. Time Alt. Az. Time Alt. Az.
22 Jul 5.2 03:52:31 10° SSE 03:56:19 30° E 04:00:07 10° NNE visible
23 Jul 4.1 04:08:55 13° S 04:12:43 57° E 04:16:58 10° NNE visible
24 Jul 3.5 04:25:47 16° SSW 04:29:12 75° W 04:33:33 10° N visible
25 Jul 6.0 03:05:38 10° SE 03:08:19 16° E 03:11:01 10° NE visible
25 Jul 4.1 04:42:38 16° SW 04:45:46 39° WNW 04:49:51 10° N visible
26 Jul 5.2 03:22:21 18° SE 03:24:38 29° E 03:28:23 10° NNE visible
26 Jul 5.0 04:59:28 12° WSW 05:02:26 22° WNW 05:05:49 10° NNW visible
27 Jul 4.0 03:39:08 30° SSE 03:41:01 55° E 03:45:15 10° NNE visible
27 Jul 5.6 05:17:21 10° W 05:19:11 12° WNW 05:21:02 10° NW visible
28 Jul 3.4 03:55:54 38° SSW 03:57:30 78° W 04:01:50 10° N visible
29 Jul 5.9 02:35:32 15° ESE 02:36:38 16° E 02:39:14 10° NE visible
29 Jul 4.1 04:12:39 31° WSW 04:14:04 40° WNW 04:18:09 10° N visible
30 Jul 5.0 02:52:16 27° ESE 02:52:56 28° E 02:56:38 10° NNE visible
30 Jul 4.9 04:29:22 19° W 04:30:43 22° WNW 04:34:08 10° NNW visible
31 Jul 4.0 03:08:58 51° ESE 03:09:19 53° E 03:13:32 10° NNE visible
31 Jul 5.6 04:46:05 11° W 04:47:28 13° WNW 04:49:24 10° NW visible
